Precipitable_Water
0.58 0.65 0.71 0.70 0.70 0.73 0.67 0.62 0.60 0.61 0.66 0.75 0.95 1.12 1.26 1.42 1.45 1.48 1.50 1.41 1.35 1.36 1.42 1.37 1.31 1.32 1.46 1.51 1.50 1.47 1.56 1.64 1.56 1.45 1.30 1.26 1.21 1.11 0.94 0.76 0.74 0.80 0.89
0.46 0.47 0.49 0.54 0.57 0.64 0.68 0.66 0.62 0.56 0.53 0.56 0.56 0.58 0.78 0.99 1.18 1.31 1.32 1.35 1.39 1.37 1.38 1.44 1.37 1.36 1.35 1.48 1.55 1.60 1.53 1.60 1.61 1.54 1.45 1.42 1.36 1.23 1.11 0.97 0.93 0.89 0.82
0.45 0.45 0.44 0.45 0.49 0.54 0.55 0.57 0.61 0.62 0.60 0.60 0.59 0.60 0.58 0.54 0.66 0.83 1.09 1.10 1.18 1.20 1.23 1.26 1.35 1.26 1.27 1.33 1.40 1.50 1.56 1.56 1.58 1.58 1.53 1.45 1.40 1.37 1.29 1.17 1.17 1.08 0.86
0.49 0.48 0.49 0.50 0.53 0.52 0.51 0.54 0.57 0.54 0.55 0.59 0.56 0.55 0.57 0.59 0.61 0.60 0.67 0.76 0.76 0.87 0.91 0.99 1.12 1.16 1.13 1.17 1.22 1.30 1.37 1.42 1.49 1.54 1.51 1.48 1.43 1.39 1.32 1.28 1.33 1.28 1.14
0.51 0.51 0.52 0.53 0.55 0.54 0.54 0.57 0.57 0.55 0.51 0.52 0.55 0.58 0.58 0.57 0.58 0.64 0.63 0.61 0.62 0.69 0.72 0.80 0.81 0.91 1.09 1.05 1.14 1.24 1.26 1.28 1.39 1.45 1.44 1.43 1.36 1.31 1.28 1.26 1.26 1.24 1.19
0.53 0.53 0.53 0.54 0.56 0.54 0.54 0.57 0.58 0.61 0.59 0.56 0.52 0.52 0.58 0.59 0.59 0.57 0.54 0.56 0.61 0.65 0.68 0.64 0.68 0.71 0.83 1.06 1.11 1.09 1.13 1.20 1.27 1.38 1.42 1.38 1.36 1.28 1.26 1.24 1.22 1.19 1.15
0.53 0.53 0.53 0.54 0.55 0.53 0.53 0.55 0.56 0.55 0.55 0.60 0.52 0.52 0.52 0.53 0.50 0.50 0.55 0.60 0.62 0.63 0.67 0.68 0.71 0.73 0.71 0.77 0.99 1.04 1.04 1.14 1.21 1.36 1.34 1.55 1.30 1.26 1.25 1.23 1.24 1.22 1.16
0.53 0.52 0.52 0.52 0.53 0.53 0.53 0.53 0.54 0.52 0.54 0.59 0.48 0.49 0.39 0.43 0.55 0.60 0.62 0.66 0.69 0.71 0.66 0.73 0.74 0.73 0.75 0.79 0.86 0.92 1.05 1.10 1.17 1.25 1.27 1.24 1.28 1.27 1.30 1.26 1.27 1.26 1.20
0.54 0.54 0.54 0.53 0.52 0.53 0.51 0.53 0.53 0.53 0.47 0.53 0.56 0.51 0.43 0.40 0.50 0.61 0.65 0.70 0.73 0.73 0.71 0.69 0.75 0.74 0.72 0.77 0.78 0.83 0.90 0.95 1.05 1.17 1.16 1.23 1.25 1.29 1.27 1.28 1.31 1.28 1.20
0.53 0.54 0.55 0.55 0.54 0.55 0.53 0.54 0.57 0.56 0.55 0.48 0.55 0.58 0.58 0.57 0.45 0.41 0.61 0.70 0.74 0.70 0.72 0.73 0.72 0.73 0.74 0.75 0.79 0.83 0.85 0.85 0.89 0.95 1.02 1.12 1.26 1.32 1.37 1.30 1.35 1.25 1.28
0.54 0.55 0.55 0.56 0.56 0.57 0.56 0.55 0.55 0.55 0.56 0.52 0.53 0.56 0.60 0.58 0.59 0.53 0.45 0.51 0.64 0.68 0.71 0.72 0.74 0.76 0.76 0.76 0.73 0.76 0.79 0.81 0.82 0.86 0.93 1.01 1.15 1.23 1.30 1.32 1.29 1.39 1.30
0.54 0.57 0.57 0.56 0.57 0.56 0.56 0.56 0.56 0.56 0.56 0.55 0.56 0.57 0.57 0.56 0.55 0.55 0.52 0.52 0.52 0.59 0.70 0.75 0.77 0.79 0.82 0.82 0.82 0.78 0.79 0.83 0.83 0.85 0.85 0.91 1.06 1.20 1.25 1.46 1.44 1.32 1.29
0.52 0.54 0.57 0.57 0.56 0.57 0.58 0.59 0.58 0.57 0.57 0.55 0.54 0.54 0.59 0.61 0.65 0.65 0.61 0.55 0.54 0.60 0.63 0.71 0.74 0.78 0.84 0.87 0.87 0.87 0.83 0.81 0.85 0.89 0.95 0.92 0.97 1.08 1.16 1.20 1.36 1.32 1.38
0.52 0.56 0.57 0.57 0.57 0.58 0.58 0.59 0.58 0.58 0.59 0.59 0.57 0.56 0.57 0.60 0.65 0.66 0.63 0.58 0.50 0.53 0.56 0.55 0.65 0.70 0.81 0.85 0.88 0.91 0.89 0.91 0.91 0.91 0.94 0.95 0.93 0.96 0.98 1.05 1.14 1.26 1.31
0.55 0.56 0.57 0.56 0.57 0.57 0.59 0.60 0.58 0.58 0.60 0.61 0.60 0.60 0.60 0.62 0.66 0.68 0.68 0.65 0.54 0.44 0.47 0.59 0.63 0.73 0.76 0.81 0.86 0.87 0.89 0.91 0.96 0.99 0.97 0.95 0.94 0.96 1.00 1.05 1.08 1.33 1.22
0.56 0.57 0.56 0.57 0.57 0.58 0.60 0.60 0.59 0.60 0.59 0.61 0.63 0.60 0.60 0.61 0.61 0.64 0.65 0.69 0.67 0.60 0.50 0.63 0.66 0.73 0.78 0.78 0.84 0.85 0.89 0.91 0.94 0.98 0.99 1.00 0.96 0.95 0.97 1.00 1.09 1.11 1.15
0.58 0.57 0.57 0.57 0.57 0.57 0.59 0.59 0.61 0.61 0.59 0.62 0.64 0.63 0.61 0.64 0.63 0.63 0.63 0.63 0.62 0.63 0.55 0.61 0.69 0.74 0.74 0.75 0.77 0.83 0.85 0.90 0.93 0.97 1.00 1.01 1.02 1.01 1.00 0.99 1.00 1.01 1.03
0.59 0.59 0.58 0.58 0.58 0.58 0.59 0.60 0.61 0.63 0.61 0.61 0.63 0.64 0.63 0.64 0.64 0.65 0.64 0.62 0.62 0.65 0.63 0.57 0.66 0.69 0.71 0.76 0.78 0.76 0.78 0.83 0.85 0.93 0.97 0.99 0.98 0.98 0.96 0.98 0.98 0.96 0.94
0.57 0.57 0.57 0.57 0.58 0.60 0.60 0.62 0.65 0.65 0.65 0.66 0.66 0.66 0.64 0.66 0.64 0.63 0.66 0.63 0.64 0.66 0.66 0.61 0.60 0.67 0.72 0.77 0.75 0.78 0.77 0.78 0.82 0.89 0.90 0.95 0.98 0.97 0.92 0.89 0.88 0.89 0.89
0.55 0.55 0.56 0.58 0.60 0.62 0.63 0.64 0.66 0.67 0.67 0.68 0.69 0.68 0.66 0.65 0.62 0.63 0.65 0.67 0.67 0.65 0.66 0.65 0.66 0.68 0.69 0.74 0.74 0.73 0.71 0.76 0.74 0.79 0.86 0.87 0.88 0.90 0.89 0.85 0.83 0.82 0.85
0.56 0.56 0.58 0.61 0.62 0.65 0.66 0.67 0.68 0.69 0.69 0.68 0.69 0.68 0.68 0.68 0.69 0.67 0.66 0.65 0.65 0.64 0.66 0.66 0.64 0.65 0.68 0.69 0.68 0.72 0.71 0.72 0.73 0.73 0.76 0.78 0.80 0.81 0.84 0.85 0.84 0.82 0.80
0.56 0.56 0.57 0.61 0.63 0.66 0.70 0.69 0.72 0.69 0.69 0.68 0.67 0.67 0.67 0.65 0.64 0.64 0.63 0.63 0.64 0.63 0.64 0.63 0.63 0.63 0.67 0.68 0.70 0.70 0.68 0.65 0.61 0.73 0.70 0.71 0.75 0.74 0.77 0.80 0.81 0.80 0.79
0.56 0.56 0.59 0.62 0.63 0.67 0.70 0.70 0.72 0.70 0.70 0.69 0.67 0.65 0.63 0.64 0.63 0.61 0.61 0.63 0.65 0.66 0.67 0.65 0.62 0.64 0.65 0.69 0.69 0.65 0.65 0.65 0.63 0.67 0.68 0.64 0.70 0.68 0.73 0.74 0.75 0.74 0.73
0.57 0.58 0.59 0.63 0.63 0.66 0.70 0.69 0.71 0.68 0.68 0.67 0.65 0.62 0.59 0.58 0.59 0.59 0.58 0.58 0.59 0.63 0.65 0.67 0.67 0.67 0.69 0.71 0.69 0.67 0.65 0.64 0.65 0.66 0.67 0.58 0.65 0.63 0.65 0.61 0.57 0.53 0.51
0.59 0.59 0.62 0.64 0.62 0.65 0.69 0.69 0.68 0.65 0.62 0.62 0.62 0.59 0.57 0.54 0.56 0.57 0.54 0.53 0.54 0.56 0.60 0.63 0.65 0.67 0.66 0.65 0.65 0.64 0.59 0.57 0.55 0.54 0.53 0.49 0.50 0.50 0.51 0.50 0.52 0.52 0.52
0.60 0.61 0.62 0.63 0.64 0.63 0.67 0.66 0.65 0.62 0.56 0.55 0.56 0.55 0.52 0.45 0.43 0.42 0.39 0.38 0.35 0.39 0.44 0.46 0.47 0.48 0.49 0.51 0.53 0.52 0.44 0.39 0.41 0.39 0.45 0.43 0.45 0.45 0.41 0.45 0.45 0.44 0.43
Wind_Speed
11 12 11 11 11 10 11 12 13 13 14 15 16 18 18 18 20 20 21 22 22 22 22 22 22 21 22 22 21 21 21 21 21 21 20 20 19 19 18 18 17 17 17
9 9 11 11 11 12 12 13 13 14 14 15 16 17 19 20 20 21 21 22 22 23 23 24 25 25 25 25 25 25 25 25 25 24 23 23 22 21 21 20 19 19 19
9 10 10 11 11 12 13 14 15 15 15 16 16 17 17 18 20 21 22 23 24 24 24 25 25 26 26 26 27 27 27 28 28 28 27 26 25 24 24 23 23 21 21
10 10 11 12 13 13 14 15 16 17 18 18 19 19 20 20 21 21 22 23 24 25 26 26 27 26 27 27 27 28 28 29 29 28 28 27 27 26 26 26 26 25 24
11 12 13 13 14 15 16 17 18 18 20 21 22 22 22 23 23 23 23 24 25 25 26 26 27 27 28 29 29 29 29 30 31 30 30 29 28 27 27 26 26 27 27
12 13 14 14 15 16 16 17 18 19 20 22 23 25 26 26 26 26 26 26 27 27 27 28 28 28 28 28 30 31 31 31 32 33 32 31 30 29 29 29 28 27 27
13 14 14 15 16 17 18 19 19 20 21 22 23 24 25 27 28 28 28 27 27 29 28 29 29 29 29 30 31 31 32 33 32 33 35 32 33 32 31 31 30 30 29
14 15 16 17 18 18 19 20 21 21 22 23 23 24 22 23 22 24 25 26 26 26 29 29 29 29 29 31 32 32 32 33 34 35 34 36 36 35 34 34 33 32 32
15 16 17 18 19 20 21 21 22 22 22 23 23 23 22 21 23 23 23 25 26 25 25 27 29 31 31 31 32 33 34 35 35 37 37 37 38 38 38 37 36 35 33
17 17 18 19 20 21 21 22 23 24 24 24 25 25 26 26 25 24 24 24 26 27 27 27 29 30 31 33 33 34 35 35 36 37 38 39 40 40 39 39 38 37 38
18 19 20 20 21 22 22 23 24 25 25 26 26 26 26 27 27 27 27 26 28 28 30 31 32 32 33 32 33 35 37 37 38 39 39 39 40 40 40 43 43 37 36
21 22 22 23 24 24 24 25 25 26 26 27 27 27 27 27 27 28 28 28 29 30 30 31 32 33 34 35 35 36 37 38 39 40 41 42 41 41 41 37 40 41 41
24 24 25 25 25 26 26 27 27 27 27 28 28 28 28 29 29 28 28 29 29 30 31 32 34 35 36 37 38 38 39 40 40 40 40 41 41 42 42 43 44 42 43
25 25 26 26 26 27 28 28 28 28 28 28 29 30 29 29 29 29 29 30 31 31 31 32 33 34 36 37 38 39 39 40 41 41 41 41 42 42 42 43 45 44 44
26 27 28 28 28 29 30 29 29 29 28 28 27 27 28 28 29 29 30 30 30 31 31 31 31 32 34 36 36 38 39 40 40 40 41 41 40 39 38 37 37 37 41
29 29 29 30 31 31 31 31 30 29 28 27 26 26 25 25 27 28 28 29 30 32 33 32 32 34 34 36 37 37 37 38 38 38 39 38 38 37 35 35 35 36 36
30 31 31 32 32 32 32 32 30 29 27 26 25 24 24 24 24 25 27 28 29 30 31 32 32 33 33 34 34 35 34 32 32 34 35 36 35 36 36 37 37 38 41
29 30 31 32 32 32 31 30 28 26 25 25 23 23 23 22 22 22 22 23 24 26 28 29 29 30 31 29 29 30 32 33 32 27 28 30 31 32 32 32 32 34 35
28 28 29 30 30 29 28 27 25 24 23 22 21 20 20 20 19 19 19 20 21 22 24 26 27 27 27 27 26 25 26 27 28 27 23 24 24 27 29 30 31 32 33
27 27 28 28 27 25 24 23 23 21 20 19 17 16 15 14 15 15 17 18 18 20 20 21 21 21 22 22 22 22 23 24 24 25 22 21 22 23 25 27 28 29 29
25 26 25 24 23 22 20 20 19 17 15 14 12 12 11 11 12 12 13 15 16 17 19 18 17 17 16 19 19 19 20 20 21 24 23 21 20 20 22 24 26 29 30
25 24 23 22 20 18 17 16 14 13 12 12 11 10 10 10 10 11 12 13 15 16 16 15 15 16 15 15 14 14 14 13 16 20 22 24 23 22 23 23 23 24 26
23 21 20 18 17 15 15 13 11 10 9 9 9 9 9 9 9 10 10 11 12 12 13 13 13 14 13 13 13 13 13 13 11 12 16 18 19 20 21 21 22 24 25
20 19 17 15 13 12 12 11 10 9 9 9 9 8 8 8 9 9 9 10 11 11 11 10 10 10 10 11 13 14 13 12 12 12 13 13 15 16 19 21 22 23 24
18 16 15 13 12 10 10 9 10 10 9 8 8 8 8 8 8 8 9 9 9 10 9 9 8 8 7 8 8 7 8 9 10 10 12 14 16 17 19 20 22 23 25
16 14 13 11 10 9 9 8 9 8 8 7 6 6 6 6 5 6 7 7 8 9 9 8 8 8 9 9 9 10 10 10 11 12 13 13 15 16 18 19 21 22 23
Wind_Direction
258 258 256 260 263 262 262 262 260 259 260 259 259 257 258 260 258 258 256 256 256 257 258 257 256 254 253 252 250 249 247 245 247 251 253 256 259 261 263 262 258 255 250
260 263 263 266 267 268 264 264 264 264 263 263 262 262 261 261 260 259 259 256 259 260 259 260 257 255 255 253 252 252 251 250 251 252 255 256 259 261 262 260 258 253 253
266 269 270 269 269 270 269 267 265 266 265 265 265 265 266 265 262 261 261 258 259 260 261 260 260 257 255 256 254 254 253 252 252 254 256 257 260 262 260 259 256 255 255
271 273 273 274 274 274 271 269 268 268 268 268 269 268 267 266 265 265 263 262 262 262 262 261 260 259 256 255 255 254 255 254 253 253 255 257 259 261 259 259 256 254 254
275 277 277 277 279 277 276 273 273 273 272 271 270 269 268 267 266 266 265 266 265 264 263 263 262 261 260 258 256 256 257 256 254 254 255 256 259 258 259 258 255 254 254
278 279 280 280 282 280 280 280 278 277 276 276 274 272 269 268 267 266 266 266 266 265 264 264 263 262 262 260 258 259 259 259 257 254 255 257 258 259 258 257 255 254 254
279 281 282 283 284 284 283 283 282 281 280 280 280 276 274 271 268 267 266 265 267 265 265 264 263 263 263 261 260 260 259 258 257 254 258 249 258 258 258 257 256 254 254
282 283 284 285 287 287 287 285 284 283 281 282 281 280 276 273 271 269 266 265 268 269 265 264 263 263 263 263 262 261 260 259 257 258 257 258 257 258 256 257 254 254 255
282 285 286 287 288 288 288 287 286 285 282 282 281 278 277 272 275 270 272 267 268 270 270 265 264 265 266 265 263 262 262 260 259 259 259 259 257 257 257 256 254 253 254
283 286 288 291 291 291 290 288 287 285 283 282 280 277 274 274 273 273 271 269 269 270 270 269 269 268 267 266 265 264 263 263 261 261 260 259 259 259 256 254 251 256 252
284 284 288 291 291 291 291 291 289 287 283 281 279 278 277 274 272 271 273 272 271 271 271 271 271 269 268 268 268 266 265 264 263 262 261 260 259 259 258 254 254 247 249
283 285 287 289 291 291 292 291 289 287 284 282 280 277 274 274 274 272 272 272 273 274 274 273 272 270 270 269 269 268 267 266 265 263 262 259 259 259 260 249 246 250 256
285 286 286 288 289 291 291 290 289 288 285 283 281 278 275 272 273 273 273 274 275 276 275 275 274 273 271 270 270 270 270 267 266 264 262 260 258 258 256 256 250 246 252
284 285 287 288 289 290 291 291 289 287 285 284 281 278 275 273 270 272 274 276 278 279 279 278 278 276 272 271 270 271 271 268 266 264 261 260 259 258 257 254 252 248 240
285 286 287 287 288 289 290 290 288 286 284 284 282 280 274 272 272 272 274 275 277 279 280 281 280 280 276 274 273 272 272 269 267 264 261 260 258 256 253 251 247 237 245
286 285 285 286 287 288 288 288 287 284 282 282 280 278 276 274 274 272 275 277 277 278 280 281 280 280 279 277 275 273 273 271 268 264 261 259 254 253 249 245 241 239 240
287 286 285 285 287 288 287 286 285 282 280 279 279 276 275 276 278 278 276 278 279 280 281 283 282 281 282 280 277 271 270 272 269 265 261 257 253 250 248 246 244 242 245
290 289 288 287 287 287 286 285 282 279 277 278 277 275 275 276 277 280 281 282 284 284 285 285 284 283 282 282 281 277 271 269 266 268 262 254 249 247 246 244 242 240 243
294 292 291 290 289 287 285 284 280 278 276 274 275 274 276 275 276 282 284 286 288 290 291 290 288 285 282 282 281 277 276 271 262 259 258 257 251 246 244 243 243 243 242
297 295 293 291 289 287 284 281 280 277 274 271 270 271 274 278 282 286 288 291 293 297 297 296 294 290 284 283 280 277 279 272 263 257 253 251 257 250 246 245 244 242 243
300 298 295 292 289 286 282 282 279 273 270 265 264 266 269 276 287 296 298 299 301 301 300 298 300 291 288 287 280 279 281 277 268 255 251 252 252 250 253 249 247 247 249
301 300 297 294 289 283 281 279 275 268 265 257 259 265 269 280 289 302 308 308 305 304 305 298 299 298 288 293 287 282 292 286 274 256 250 257 257 253 253 254 252 249 251
301 300 298 294 288 283 278 272 264 259 257 255 260 264 271 279 293 303 313 322 325 323 316 305 299 298 291 288 288 287 291 286 281 270 261 257 256 254 252 254 254 257 258
301 300 298 294 286 282 273 264 253 249 255 260 262 267 273 281 291 302 312 319 326 329 330 328 321 307 297 293 289 288 287 285 278 272 264 260 258 256 256 258 262 262 262
299 299 295 290 286 278 273 254 249 249 252 258 261 270 275 282 291 303 311 320 326 329 334 338 338 333 327 321 313 304 302 295 287 280 273 267 265 263 265 265 266 265 265
295 293 291 286 284 272 268 256 248 241 250 256 266 269 280 283 299 312 318 324 331 332 333 334 332 333 329 323 318 308 302 297 290 286 283 279 274 273 272 271 270 270 269